Weather History for Orange, MA

Change the Weather History Date:

Friday, November 30, 2012

  Actual Average Record
Temperature  
Mean Temperature 32 °F -  
Max Temperature 35 °F 40 °F 62 °F (2001)
Min Temperature 28 °F 22 °F 6 °F (2013)
Degree Days  
Heating Degree Days 34    
Moisture  
Dew Point 9 °F    
Average Humidity 44    
Maximum Humidity 73    
Minimum Humidity 23    
Precipitation  
Precipitation 0.00 in - - ()
Sea Level Pressure  
Sea Level Pressure 30.44 in    
Wind  
Wind Speed 6 mph (North)    
Max Wind Speed 12 mph    
Max Gust Speed 16 mph    
Visibility 10 miles    
Events      
Averages and records for this station are not official NWS values.
T = Trace of Precipitation, MM = Missing Value Source: NWS Daily Summary

Daily Weather History Graph

Daily Weather History Graph

Search for Another Location

Airport:

Trip Planner

Search our weather history database for the weather conditions in past years. The results will help you decide how hot, cold, wet, or windy it might be!

Date:

Astronomy

Nov. 30, 2012 Rise Set
Actual Time 6:58 AM EST 4:17 PM EST
Civil Twilight 6:27 AM EST 4:48 PM EST
Nautical Twilight 5:52 AM EST 5:23 PM EST
Astronomical Twilight 5:18 AM EST 5:57 PM EST
Moon 6:09 PM EST (11/30) 8:28 AM EST (11/30)
Length of Visible Light 10h 21m
Length of Day
9h 18m
Waning Gibbous, 96% of the Moon is Illuminated
Nov 30
Waning Gibbous
Dec 6
Last Quarter
Dec 13
New
Dec 20
First Quarter
Dec 28
Full

Hourly Weather History & Observations

Time (EST) Temp. Windchill Dew Point Humidity Pressure Visibility Wind Dir Wind Speed Gust Speed Precip Events Conditions
12:52 AM 35.1 °F 30.1 °F 24.1 °F 64% 30.22 in 10.0 mi SE 5.8 mph - N/A   Overcast
1:52 AM 35.1 °F - 24.1 °F 64% 30.26 in 10.0 mi Calm Calm - N/A   Overcast
2:52 AM 34.0 °F 28.8 °F 26.1 °F 73% 30.29 in 10.0 mi NNE 5.8 mph - N/A   Overcast
3:52 AM 33.1 °F 26.9 °F 25.0 °F 72% 30.31 in 10.0 mi NNE 6.9 mph - N/A   Overcast
4:52 AM 32.0 °F 26.4 °F 24.1 °F 73% 30.33 in 10.0 mi NNE 5.8 mph - N/A   Overcast
5:07 AM 32.0 °F 26.4 °F 23.0 °F 69% 30.32 in 10.0 mi NNE 5.8 mph - N/A   Overcast
5:52 AM 30.9 °F 23.5 °F 21.9 °F 69% 30.37 in 10.0 mi NNE 8.1 mph - N/A   Overcast
6:52 AM 30.0 °F 20.5 °F 19.9 °F 66% 30.40 in 10.0 mi North 11.5 mph 16.1 mph N/A   Overcast
7:52 AM 28.9 °F 21.1 °F 18.0 °F 64% 30.43 in 10.0 mi North 8.1 mph - N/A   Overcast
8:52 AM 28.0 °F 18.6 °F 15.1 °F 58% 30.46 in 10.0 mi NNW 10.4 mph - N/A   Overcast
9:52 AM 28.0 °F 18.6 °F 8.1 °F 43% 30.49 in 10.0 mi NNW 10.4 mph - N/A   Overcast
10:52 AM 30.0 °F 24.1 °F -0.9 °F 27% 30.48 in 10.0 mi North 5.8 mph - N/A   Mostly Cloudy
11:52 AM 30.0 °F 25.2 °F -0.9 °F 27% 30.48 in 10.0 mi Variable 4.6 mph - N/A   Overcast
12:52 PM 30.9 °F 27.5 °F -2.9 °F 23% 30.45 in 10.0 mi Variable 3.5 mph - N/A   Overcast
1:52 PM 32.0 °F 24.2 °F -0.9 °F 24% 30.45 in 10.0 mi NW 9.2 mph - N/A   Overcast
2:52 PM 30.9 °F 23.5 °F -2.0 °F 24% 30.47 in 10.0 mi NW 8.1 mph - N/A   Overcast
3:06 PM 30.2 °F 23.4 °F -0.4 °F 27% 30.45 in 10.0 mi NW 6.9 mph - N/A   Overcast
3:52 PM 30.0 °F 26.5 °F -0.0 °F 28% 30.47 in 10.0 mi North 3.5 mph - N/A   Overcast
4:52 PM 30.0 °F 26.5 °F 3.9 °F 33% 30.48 in 10.0 mi NW 3.5 mph - N/A   Overcast
5:52 PM 30.0 °F 24.1 °F 1.9 °F 30% 30.50 in 10.0 mi North 5.8 mph - N/A   Overcast
6:52 PM 28.9 °F 22.8 °F 3.0 °F 33% 30.52 in 10.0 mi North 5.8 mph - N/A   Overcast
7:52 PM 28.9 °F 22.8 °F 3.0 °F 33% 30.53 in 10.0 mi North 5.8 mph - N/A   Overcast
8:52 PM 30.0 °F 26.5 °F 1.9 °F 30% 30.53 in 10.0 mi East 3.5 mph - N/A   Overcast
9:52 PM 28.9 °F 22.8 °F -2.9 °F 25% 30.54 in 10.0 mi Variable 5.8 mph - N/A   Overcast
10:52 PM 28.9 °F 25.2 °F -2.0 °F 26% 30.55 in 10.0 mi East 3.5 mph - N/A   Overcast
11:52 PM 28.9 °F 23.9 °F 1.0 °F 30% 30.55 in 10.0 mi East 4.6 mph - N/A   Overcast